Terminal Aerodrome Forecast
Issued by NWS

Home | Current Version | Previous Version | Graphics & Text | Print | Product List | Glossary On
Versions: 1 2 3 4 5 6 7 8 9 10 11 12 13 14 15 16 17 18 19 20 21 22 23 24 25 26
000
FTUS43 KGRB 250800 AAB
TAFMTW
TAF AMD
KMTW 250800Z 2508/2606 22007KT 6SM BR SCT009 OVC014 WS017/30035KT
      TEMPO 2508/2510 4SM BR OVC009
     FM251000 27010KT 6SM BR BKN012 WS017/30035KT
     FM251300 28009KT P6SM SCT012 WS017/30035KT
     FM251500 28015G24KT P6SM SKC
     FM252300 28009KT P6SM SKC=

USA.gov is the U.S. government's official web portal to all federal, state and local government web resources and services.